Location: Grasslands National Park East Block
(49.0708°N, 106.5295°W)
Time: 06:22:57
(UTC-06:00)

Courier 1B - All Passes

Search period start: 22 September 2019 00:00
Search period end: 02 October 2019 00:00
Orbit: 962 x 1209 km, 28.3° (Epoch: 21 September)

Date Brightness Start Highest point End Pass type
(mag) Time Alt. Az. Time Alt. Az. Time Alt. Az.
22 Sep - 07:45:45 10° SSW 07:48:28 12° S 07:51:15 10° SSE daylight
22 Sep - 09:38:58 10° SSW 09:41:06 11° S 09:43:18 10° S daylight
23 Sep - 06:53:04 10° S 06:55:03 11° S 06:57:04 10° SSE daylight
23 Sep - 08:45:08 10° SSW 08:47:39 12° S 08:50:13 10° SSE daylight
24 Sep - 07:51:38 10° SSW 07:54:12 12° S 07:56:51 10° SSE daylight
25 Sep - 06:58:24 10° SSW 07:00:48 12° S 07:03:13 10° SSE daylight
26 Sep - 06:05:30 10° S 06:07:24 11° S 06:09:19 10° SSE visible
26 Sep - 07:58:45 10° SSW 07:59:58 10° S 08:01:10 10° S daylight
27 Sep - 05:13:21 10° S 05:14:01 10° S 05:14:40 10° SSE visible
27 Sep - 07:04:48 10° SSW 07:06:33 11° S 07:08:20 10° S daylight
28 Sep - 06:11:17 10° SSW 06:13:10 11° S 06:15:04 10° SSE visible
29 Sep - 05:18:04 10° SSW 05:19:47 11° S 05:21:30 10° SSE visible
30 Sep - 04:25:15 10° S 04:26:24 10° S 04:27:35 10° SSE visible
01 Oct - 05:24:27 10° SSW 05:25:33 10° S 05:26:40 10° S visible
